Flag for United Kingdom Weather past 2 weeks in Wakefield, England, United Kingdom

39 °F

Passing clouds.

Feels Like: 33 °F
Forecast: N/A
Wind: 9 mph from North

Location: Leeds And Bradford

Current Time: Nov 30, 2015 at 5:49:07 PM

Latest Report: Nov 30, 2015 at 5:20 PM

Visibility: N/A

Pressure: 29.80 "Hg

Humidity: 93%

Dew point: 37 °F

Location of WakefieldLocation

Historic Weather in Wakefield — Graph


Wakefield temperature yesterday

Maximum temperature yesterday: 50 °F (at 12:20 PM)
Minimum temperature yesterday: 37 °F (at 10:50 PM)
Average temperature yesterday: 43 °F

Past Weeks' High & Low Weather Summary

High55 °F (Nov 15, 4:20 PM)100% (Nov 17, 11:50 AM)30.18 "Hg (Nov 17, 11:50 AM)
Low28 °F (Nov 21, 9:20 PM)60% (Nov 21, 12:50 PM)29.15 "Hg (Nov 17, 4:50 PM)
Average43 °F88%29.71 "Hg
* Reported Nov 15 4:20 PM — Nov 30 4:20 PM, Wakefield, Weather by CustomWeather, © 2015

Note: Actual official high and low records may vary slightly from our data, if they occured in-between our weather recording intervals... More about our weather records


Wakefield weather history for previous 24 hours

Time TempWeatherWind HumidityBarometerVisibility
4:20 PM
Mon, Nov 30
39 °FLight rain. Partly cloudy.10 mph100%29.74 "HgN/A
3:50 PM39 °FLight rain. Partly cloudy.12 mph100%29.71 "HgN/A
3:20 PM41 °FLight rain. Broken clouds.13 mph100%29.68 "HgN/A
2:50 PM50 °FLight rain. Partly sunny.22 mph100%29.62 "Hg5 mi
2:20 PM52 °FLight rain. Partly sunny.25 mph94%29.59 "Hg2 mi
1:50 PM52 °FLight rain. Partly sunny.25 mph94%29.56 "Hg2 mi
1:20 PM52 °FLight rain. Partly sunny.25 mph94%29.56 "Hg2 mi
12:50 PM48 °FLight rain. Fog.17 mph100%29.56 "Hg2 mi
12:20 PM48 °FLight rain. Fog.16 mph94%29.56 "Hg3 mi
11:50 AM46 °FLight rain. Fog.10 mph100%29.59 "Hg3 mi
11:20 AM41 °FLight rain. Fog.7 mph100%29.59 "Hg1 mi
10:50 AM39 °FLight rain. Fog.7 mph100%29.65 "Hg0 mi
10:20 AM39 °FLight rain. Fog.7 mph100%29.68 "Hg1 mi
9:50 AM39 °FLight rain. Broken clouds.7 mph100%29.71 "HgN/A
9:20 AM39 °FLight rain. Partly sunny.6 mph100%29.74 "HgN/A
8:50 AM39 °FLight rain. Partly sunny.8 mph100%29.77 "HgN/A
8:20 AM37 °FPartly sunny.7 mph100%29.77 "HgN/A
6:50 AM39 °FLight rain. Passing clouds.10 mph87%29.83 "HgN/A
6:20 AM39 °FPassing clouds.8 mph87%29.83 "HgN/A
5:20 AM39 °FPassing clouds.14 mph75%29.86 "HgN/A
4:50 AM39 °FPassing clouds.13 mph75%29.86 "HgN/A
4:20 AM37 °FPassing clouds.13 mph81%29.86 "HgN/A
3:50 AM39 °FClear.15 mph75%29.86 "Hg10 mi
3:20 AM37 °FPassing clouds.14 mph81%29.83 "HgN/A
2:50 AM37 °FClear.16 mph81%29.86 "Hg10 mi
2:20 AM37 °FClear.20 mph75%29.83 "Hg10 mi
12:20 AM37 °FPassing clouds.17 mph75%29.83 "HgN/A
11:50 PM
Sun, Nov 29
37 °FPassing clouds.20 mph75%29.83 "HgN/A
10:50 PM37 °FSprinkles. Passing clouds.29 mph81%29.80 "HgN/A
10:20 PM39 °FSprinkles. Passing clouds.25 mph75%29.77 "HgN/A
9:50 PM39 °FScattered showers. Passing clouds.24 mph75%29.74 "HgN/A
9:20 PM39 °FSprinkles. Passing clouds.28 mph81%29.71 "HgN/A
8:50 PM39 °FScattered showers. Passing clouds.30 mph81%29.68 "HgN/A
8:20 PM39 °FSprinkles. Passing clouds.24 mph87%29.68 "HgN/A
7:50 PM39 °FPassing clouds.23 mph87%29.65 "HgN/A
7:20 PM41 °FSprinkles. Passing clouds.24 mph81%29.65 "HgN/A
6:50 PM41 °FSprinkles. Passing clouds.26 mph87%29.62 "HgN/A
6:20 PM41 °FSprinkles. Passing clouds.23 mph81%29.59 "HgN/A
5:50 PM39 °FRain showers. Passing clouds.33 mph87%29.56 "Hg6 mi
5:20 PM41 °FSprinkles. Passing clouds.24 mph87%29.53 "HgN/A
Weather by CustomWeather, © 2015

See weather overviewHow to use our weather pages